Greeley, CO

2:52 PM MST on December 15, 2017 (GMT -0700)
Greeley-Weld County

Weather History for KGXY - March, 2013

Change the Weather History Date:

Monday, March 11, 2013

  Actual Average Record
Temperature  
Mean Temperature 40 °F -  
Max Temperature 55 °F - 79 °F (1972)
Min Temperature 24 °F - 3 °F (1998)
Degree Days  
Heating Degree Days 26    
Month to date heating degree days  
Cooling Degree Days 0    
Month to date cooling degree days  
Moisture  
Dew Point 24 °F    
Average Humidity 66    
Maximum Humidity 93    
Minimum Humidity 25    
Precipitation  
Precipitation 0.13 in - 0.27 in (2017)
Sea Level Pressure  
Sea Level Pressure 29.99 in    
Wind  
Wind Speed 6 mph (NW)    
Max Wind Speed 33 mph    
Max Gust Speed 39 mph    
Visibility 8 miles    
Events      
T = Trace of Precipitation, MM = Missing Value Source: NWS Daily Summary

Daily Weather History Graph

Daily Weather History Graph

Search for Another Location

Airport or City:

Trip Planner

Search our weather history database for the weather conditions in past years. The results will help you decide how hot, cold, wet, or windy it might be!

Date:

Astronomy

Mar. 11, 2013 Rise Set
Actual Time 7:16 AM MDT 7:01 PM MDT
Civil Twilight 6:48 AM MDT 7:28 PM MDT
Nautical Twilight 6:17 AM MDT 8:00 PM MDT
Astronomical Twilight 5:45 AM MDT 8:32 PM MDT
Moon 6:51 AM MDT (3/11) 7:16 PM MDT (3/11)
Length of Visible Light 12h 39m
Length of Day
11h 45m
Waning Crescent, 0% of the Moon is Illuminated
Mar 11
Waning Crescent
Mar 11
New
Mar 19
First Quarter
Mar 27
Full
Apr 2
Last Quarter

Hourly Weather History & Observations

Time (MDT) Temp. Windchill Dew Point Humidity Pressure Visibility Wind Dir Wind Speed Gust Speed Precip Events Conditions
12:15 AM 24.8 °F - 19.4 °F 80% 30.00 in 10.0 mi Calm Calm - N/A   Clear
12:35 AM 24.8 °F - 17.6 °F 74% 30.00 in 10.0 mi Calm Calm - N/A   Clear
12:55 AM 24.8 °F - 19.4 °F 80% 29.99 in 10.0 mi Calm Calm - N/A   Clear
1:15 AM 24.8 °F - 19.4 °F 80% 29.98 in 10.0 mi Calm Calm - N/A   Clear
1:35 AM 24.8 °F 19.1 °F 19.4 °F 80% 29.98 in 10.0 mi WNW 4.6 mph - N/A   Clear
1:55 AM 24.8 °F 17.9 °F 17.6 °F 74% 29.97 in 10.0 mi NW 5.8 mph - N/A   Clear
2:15 AM 24.8 °F 20.5 °F 17.6 °F 74% 29.97 in 10.0 mi WNW 3.5 mph - N/A   Clear
2:35 AM 24.8 °F 17.9 °F 17.6 °F 74% 29.95 in 10.0 mi NW 5.8 mph - N/A   Clear
2:55 AM 24.8 °F - 17.6 °F 74% 29.94 in 10.0 mi Calm Calm - N/A   Clear
3:15 AM 24.8 °F - 19.4 °F 80% 29.94 in 10.0 mi Calm Calm - N/A   Scattered Clouds
3:35 AM 26.6 °F - 19.4 °F 74% 29.94 in 10.0 mi Calm Calm - N/A   Overcast
4:15 AM 26.6 °F - 21.2 °F 80% 29.92 in 10.0 mi Calm Calm - N/A   Overcast
4:35 AM 28.4 °F 23.3 °F 21.2 °F 74% 29.92 in 10.0 mi North 4.6 mph - N/A   Overcast
4:55 AM 28.4 °F - 21.2 °F 74% 29.92 in 10.0 mi Calm Calm - N/A   Overcast
5:15 AM 28.4 °F 24.6 °F 21.2 °F 74% 29.93 in 10.0 mi SSW 3.5 mph - N/A   Overcast
5:35 AM 28.4 °F - 23.0 °F 80% 29.92 in 10.0 mi Calm Calm - N/A   Overcast
5:55 AM 28.4 °F 24.6 °F 23.0 °F 80% 29.93 in 10.0 mi ESE 3.5 mph - N/A   Overcast
6:15 AM 28.4 °F 23.3 °F 23.0 °F 80% 29.94 in 10.0 mi South 4.6 mph - N/A   Mostly Cloudy
6:35 AM 28.4 °F - 21.2 °F 74% 29.95 in 10.0 mi Calm Calm - N/A   Mostly Cloudy
6:55 AM 28.4 °F - 23.0 °F 80% 29.96 in 10.0 mi Calm Calm - N/A   Overcast
7:15 AM 28.4 °F 19.1 °F 24.8 °F 86% 29.95 in 10.0 mi WSW 10.4 mph - N/A   Mostly Cloudy
7:35 AM 30.2 °F 23.4 °F 24.8 °F 80% 29.95 in 10.0 mi WNW 6.9 mph - N/A   Mostly Cloudy
7:55 AM 30.2 °F 25.4 °F 24.8 °F 80% 29.95 in 10.0 mi WSW 4.6 mph - N/A   Scattered Clouds
8:15 AM 30.2 °F 23.4 °F 24.8 °F 80% 29.96 in 10.0 mi SSE 6.9 mph - N/A   Partly Cloudy
8:35 AM 32.0 °F 26.4 °F 26.6 °F 80% 29.96 in 10.0 mi SW 5.8 mph - N/A   Clear
8:55 AM 35.6 °F 32.8 °F 26.6 °F 70% 29.97 in 10.0 mi SW 3.5 mph - N/A   Partly Cloudy
9:15 AM 37.4 °F 34.9 °F 26.6 °F 65% 29.97 in 10.0 mi SSW 3.5 mph - N/A   Mostly Cloudy
9:35 AM 37.4 °F 32.8 °F 26.6 °F 65% 29.97 in 10.0 mi SSW 5.8 mph - N/A   Scattered Clouds
9:55 AM 42.8 °F 40.1 °F 30.2 °F 61% 29.98 in 10.0 mi SSW 4.6 mph - N/A   Partly Cloudy
10:15 AM 46.4 °F 42.9 °F 26.6 °F 46% 29.97 in 10.0 mi SSW 6.9 mph - N/A   Clear
10:35 AM 50.0 °F - 24.8 °F 37% 29.97 in 10.0 mi NNW 3.5 mph - N/A   Clear
10:55 AM 51.8 °F - 21.2 °F 30% 29.97 in 10.0 mi West 4.6 mph - N/A   Clear
11:15 AM 51.8 °F - 21.2 °F 30% 29.96 in 10.0 mi West 3.5 mph - N/A   Scattered Clouds
11:35 AM 51.8 °F - 21.2 °F 30% 29.95 in 10.0 mi NW 17.3 mph 24.2 mph N/A   Overcast
11:55 AM 51.8 °F - 21.2 °F 30% 29.94 in 10.0 mi NW 16.1 mph - N/A   Mostly Cloudy
12:15 PM 53.6 °F - 21.2 °F 28% 29.94 in 10.0 mi WNW 17.3 mph 26.5 mph N/A   Partly Cloudy
12:35 PM 51.8 °F - 19.4 °F 28% 29.93 in 10.0 mi NW 23.0 mph 31.1 mph N/A   Clear
12:55 PM 51.8 °F - 21.2 °F 30% 29.92 in 10.0 mi NW 26.5 mph 33.4 mph N/A   Clear
1:15 PM 53.6 °F - 21.2 °F 28% 29.91 in 10.0 mi NNW 32.2 mph 38.0 mph N/A   Clear
1:35 PM 55.4 °F - 21.2 °F 26% 29.90 in 10.0 mi NW 26.5 mph 35.7 mph N/A   Clear
1:55 PM 55.4 °F - 21.2 °F 26% 29.89 in 10.0 mi NW 27.6 mph 38.0 mph N/A   Clear
2:15 PM 55.4 °F - 19.4 °F 25% 29.89 in 10.0 mi NW 29.9 mph 35.7 mph N/A   Clear
2:35 PM 55.4 °F - 21.2 °F 26% 29.88 in 10.0 mi NW 28.8 mph 38.0 mph N/A   Scattered Clouds
2:55 PM 55.4 °F - 21.2 °F 26% 29.88 in 10.0 mi NW 31.1 mph 36.8 mph N/A   Mostly Cloudy
3:15 PM 53.6 °F - 19.4 °F 26% 29.90 in 10.0 mi NW 27.6 mph 36.8 mph N/A   Scattered Clouds
3:35 PM 42.8 °F 31.8 °F 26.6 °F 53% 29.93 in 10.0 mi NNE 33.4 mph 36.8 mph N/A   Scattered Clouds
3:55 PM 42.8 °F 32.7 °F 28.4 °F 57% 29.94 in 10.0 mi NNE 27.6 mph 39.1 mph N/A   Scattered Clouds
4:15 PM 39.2 °F 28.3 °F 26.6 °F 61% 29.94 in 10.0 mi NNE 25.3 mph 35.7 mph N/A   Clear
4:35 PM 39.2 °F 28.7 °F 28.4 °F 65% 29.98 in 10.0 mi NE 23.0 mph 26.5 mph N/A   Mostly Cloudy
4:55 PM 37.4 °F 26.9 °F 28.4 °F 70% 29.99 in 10.0 mi NE 20.7 mph - N/A   Overcast
5:15 PM 37.4 °F 28.2 °F 26.6 °F 65% 30.00 in 10.0 mi NE 16.1 mph - N/A   Overcast
5:35 PM 35.6 °F 25.9 °F 26.6 °F 70% 30.00 in 10.0 mi NE 16.1 mph - N/A   Overcast
5:55 PM 35.6 °F 27.5 °F 26.6 °F 70% 30.03 in 10.0 mi NE 11.5 mph - N/A   Overcast
6:15 PM 35.6 °F 28.0 °F 26.6 °F 70% 30.03 in 10.0 mi ENE 10.4 mph - N/A   Overcast
6:35 PM 35.6 °F 28.6 °F 26.6 °F 70% 30.05 in 10.0 mi NE 9.2 mph - N/A   Overcast
6:55 PM 33.8 °F 28.6 °F 26.6 °F 75% 30.05 in 3.0 mi ENE 5.8 mph - N/A   Overcast
7:15 PM 32.0 °F 25.6 °F 26.6 °F 80% 30.07 in 0.8 mi NNE 6.9 mph - N/A   Overcast
7:35 PM 32.0 °F 26.4 °F 28.4 °F 87% 30.07 in 0.8 mi ENE 5.8 mph - 0.01 in   Overcast
7:55 PM 32.0 °F - 28.4 °F 87% 30.08 in 1.0 mi Calm Calm - 0.03 in   Overcast
8:15 PM 32.0 °F - 28.4 °F 87% 30.09 in 0.8 mi Calm Calm - 0.02 in   Overcast
8:35 PM 32.0 °F - 28.4 °F 87% 30.09 in 1.8 mi Calm Calm - 0.04 in   Overcast
8:55 PM 32.0 °F - 28.4 °F 87% 30.11 in 2.5 mi Calm Calm - 0.04 in   Overcast
9:15 PM 32.0 °F - 28.4 °F 87% 30.11 in 1.2 mi Calm Calm - 0.03 in   Overcast
9:35 PM 32.0 °F - 28.4 °F 87% 30.12 in 2.0 mi Calm Calm - 0.03 in   Overcast
10:15 PM 32.0 °F - 28.4 °F 87% 30.13 in 1.2 mi Calm Calm - 0.02 in   Overcast
10:35 PM 32.0 °F - 28.4 °F 87% 30.13 in 3.0 mi Calm Calm - 0.03 in   Overcast
10:55 PM 32.0 °F - 28.4 °F 87% 30.14 in 3.0 mi Calm Calm - 0.03 in   Overcast
11:15 PM 32.0 °F - 28.4 °F 87% 30.15 in 3.0 mi Calm Calm - N/A   Overcast
11:35 PM 32.0 °F - 28.4 °F 87% 30.15 in 3.0 mi Calm Calm - N/A   Overcast
11:55 PM 30.2 °F - 28.4 °F 93% 30.16 in 4.0 mi Calm Calm - N/A   Overcast